| time (UTC) | temp C | wind direction | speed KPH | gust KPH | rain 1hr cm | rain 24hr cm | rain mn cm | humidity % | barometer mb |
| 20260505073017 | 20 | 206 | 3.2 | 6.4 | 0.00 | 0.00 | 0.00 | 62 | |
| 20260505072016 | 20 | 207 | 1.6 | 4.8 | 0.00 | 0.00 | 0.00 | 61 | |
| 20260505071017 | 20 | 194 | 3.2 | 6.4 | 0.00 | 0.00 | 0.00 | 61 | |
| 20260505070016 | 20 | 183 | 3.2 | 6.4 | 0.00 | 0.00 | 0.00 | 61 | |
| 20260505065017 | 20 | 193 | 3.2 | 9.7 | 0.00 | 0.00 | 0.00 | 61 | |
| 20260505064038 | 20 | 194 | 3.2 | 8.0 | 0.00 | 0.00 | 0.00 | 61 | |
| 20260505063019 | 20 | 188 | 4.8 | 12.9 | 0.00 | 0.00 | 0.00 | 61 | |
| 20260505062017 | 20 | 190 | 6.4 | 12.9 | 0.00 | 0.00 | 0.00 | 61 | |
| 20260505061017 | 20 | 185 | 9.7 | 14.5 | 0.00 | 0.00 | 0.00 | 61 | |
| 20260505060017 | 21 | 186 | 4.8 | 12.9 | 0.00 | 0.00 | 0.00 | 61 | |
| 20260505055017 | 21 | 189 | 6.4 | 9.7 | 0.00 | 0.00 | 0.00 | 61 | |
| 20260505054016 | 21 | 185 | 6.4 | 14.5 | 0.00 | 0.00 | 0.00 | 61 | |
| 20260505053017 | 21 | 188 | 4.8 | 9.7 | 0.00 | 0.00 | 0.00 | 61 | |
| 20260505052037 | 21 | 183 | 8.0 | 12.9 | 0.00 | 0.00 | 0.00 | 61 | |
| 20260505051017 | 20 | 183 | 8.0 | 16.1 | 0.00 | 0.00 | 0.00 | 62 | |
| 20260505041017 | 21 | 187 | 4.8 | 8.0 | 0.00 | 0.00 | 0.00 | 61 | |
| 20260505040017 | 21 | 184 | 4.8 | 12.9 | 0.00 | 0.00 | 0.00 | 61 | |
| 20260505035017 | 21 | 171 | 3.2 | 8.0 | 0.00 | 0.00 | 0.00 | 61 | |
| 20260505034037 | 21 | 182 | 4.8 | 11.3 | 0.00 | 0.00 | 0.00 | 61 | |
| 20260505033056 | 21 | 179 | 3.2 | 9.7 | 0.00 | 0.00 | 0.00 | 61 | |
| 20260505032017 | 21 | 184 | 3.2 | 6.4 | 0.00 | 0.00 | 0.00 | 61 | |
| 20260505031016 | 21 | 188 | 4.8 | 9.7 | 0.00 | 0.00 | 0.00 | 61 | |
| 20260505030017 | 20 | 178 | 4.8 | 11.3 | 0.00 | 0.00 | 0.00 | 61 | |
| 20260505025017 | 20 | 174 | 3.2 | 8.0 | 0.00 | 0.00 | 0.00 | 61 | |
| 20260505024016 | 20 | 165 | 1.6 | 3.2 | 0.00 | 0.00 | 0.00 | 61 | |
| 20260505023017 | 20 | 175 | 1.6 | 4.8 | 0.00 | 0.00 | 0.00 | 61 | |
| 20260505022018 | 20 | 177 | 3.2 | 4.8 | 0.00 | 0.00 | 0.00 | 61 | |
| 20260505021016 | 20 | 172 | 3.2 | 4.8 | 0.00 | 0.00 | 0.00 | 61 | |
| 20260505020037 | 20 | 175 | 3.2 | 4.8 | 0.00 | 0.00 | 0.00 | 60 | |
| 20260505015016 | 20 | 175 | 3.2 | 4.8 | 0.00 | 0.00 | 0.00 | 60 | |
| 20260505014017 | 21 | 172 | 3.2 | 8.0 | 0.00 | 0.00 | 0.00 | 60 | |
| 20260505013017 | 21 | 175 | 3.2 | 4.8 | 0.00 | 0.00 | 0.00 | 60 | |
| 20260505012016 | 21 | 174 | 3.2 | 4.8 | 0.00 | 0.00 | 0.00 | 59 | |
| 20260505011017 | 21 | 176 | 3.2 | 9.7 | 0.00 | 0.00 | 0.00 | 59 | |
| 20260505010017 | 22 | 174 | 3.2 | 6.4 | 0.00 | 0.00 | 0.00 | 59 | |
| 20260505005017 | 22 | 178 | 4.8 | 8.0 | 0.00 | 0.00 | 0.00 | 58 | |
| 20260505004017 | 23 | 173 | 4.8 | 8.0 | 0.00 | 0.00 | 0.00 | 58 | |
| 20260505003017 | 23 | 181 | 4.8 | 6.4 | 0.00 | 0.00 | 0.00 | 58 | |
| 20260505002017 | 23 | 179 | 4.8 | 8.0 | 0.00 | 0.00 | 0.00 | 57 | |
| 20260505001018 | 24 | 186 | 6.4 | 12.9 | 0.00 | 0.00 | 0.00 | 57 | |
| 20260505000017 | 25 | 178 | 4.8 | 9.7 | 0.00 | 0.00 | 0.00 | 57 | |
| 20260504235017 | 25 | 190 | 4.8 | 9.7 | 0.00 | 0.00 | 0.00 | 57 | |
| 20260504234016 | 25 | 183 | 6.4 | 9.7 | 0.00 | 0.00 | 0.00 | 57 | |
| 20260504233037 | 25 | 189 | 6.4 | 17.7 | 0.00 | 0.00 | 0.00 | 56 | |
| 20260504232017 | 26 | 190 | 9.7 | 16.1 | 0.00 | 0.00 | 0.00 | 56 | |
| 20260504231016 | 27 | 183 | 6.4 | 16.1 | 0.00 | 0.00 | 0.00 | 57 | |
| 20260504230017 | 27 | 183 | 4.8 | 9.7 | 0.00 | 0.00 | 0.00 | 58 | |
| 20260504225016 | 27 | 184 | 4.8 | 9.7 | 0.00 | 0.00 | 0.00 | 59 | |
| 20260504224017 | 26 | 168 | 1.6 | 4.8 | 0.00 | 0.00 | 0.00 | 59 | |
| 20260504223017 | 25 | 161 | 1.6 | 4.8 | 0.00 | 0.00 | 0.00 | 59 | |
| 20260504222016 | 26 | 175 | 1.6 | 3.2 | 0.00 | 0.00 | 0.00 | 58 | |
| 20260504221017 | 26 | 175 | 3.2 | 3.2 | 0.00 | 0.00 | 0.00 | 58 | |
| 20260504220017 | 26 | 192 | 4.8 | 6.4 | 0.00 | 0.00 | 0.00 | 58 | |
| 20260504215017 | 26 | 177 | 3.2 | 4.8 | 0.00 | 0.00 | 0.00 | 58 | |
| 20260504214016 | 26 | 185 | 4.8 | 9.7 | 0.00 | 0.00 | 0.00 | 57 | |
| 20260504213016 | 27 | 187 | 4.8 | 9.7 | 0.00 | 0.00 | 0.00 | 58 | |
| 20260504212017 | 27 | 191 | 3.2 | 8.0 | 0.00 | 0.00 | 0.00 | 57 | |
| 20260504211017 | 27 | 260 | 3.2 | 6.4 | 0.00 | 0.00 | 0.00 | 58 | |
| 20260504210017 | 27 | 191 | 3.2 | 8.0 | 0.00 | 0.00 | 0.00 | 58 | |
| 20260504205017 | 26 | 192 | 6.4 | 12.9 | 0.00 | 0.00 | 0.00 | 59 | |
| 20260504204016 | 26 | 200 | 4.8 | 11.3 | 0.00 | 0.00 | 0.00 | 59 | |
| 20260504203017 | 26 | 207 | 4.8 | 9.7 | 0.00 | 0.00 | 0.00 | 58 | |
| 20260504202017 | 26 | 189 | 4.8 | 9.7 | 0.00 | 0.00 | 0.00 | 58 | |
| 20260504201017 | 28 | 183 | 8.0 | 12.9 | 0.00 | 0.00 | 0.00 | 57 | |
| 20260504200017 | 28 | 188 | 6.4 | 14.5 | 0.00 | 0.00 | 0.00 | 60 | |
| 20260504195017 | 25 | 193 | 3.2 | 9.7 | 0.00 | 0.00 | 0.00 | 62 | |
| 20260504194017 | 23 | 202 | 3.2 | 9.7 | 0.00 | 0.00 | 0.00 | 64 | |
| 20260504193017 | 21 | 198 | 3.2 | 6.4 | 0.00 | 0.00 | 0.00 | 64 | |
| 20260504192016 | 20 | 187 | 1.6 | 3.2 | 0.00 | 0.00 | 0.00 | 64 | |
| 20260504191017 | 20 | 184 | 3.2 | 6.4 | 0.00 | 0.00 | 0.00 | 63 | |
| 20260504190017 | 21 | 183 | 3.2 | 6.4 | 0.00 | 0.00 | 0.00 | 61 | |
| 20260504185017 | 21 | 182 | 3.2 | 9.7 | 0.00 | 0.00 | 0.00 | 60 | |
| 20260504184017 | 22 | 188 | 6.4 | 16.1 | 0.00 | 0.00 | 0.00 | 59 | |
| 20260504183017 | 23 | 194 | 8.0 | 12.9 | 0.00 | 0.00 | 0.00 | 58 | |
| 20260504182017 | 25 | 191 | 8.0 | 16.1 | 0.00 | 0.00 | 0.00 | 57 | |
| 20260504181017 | 25 | 189 | 8.0 | 19.3 | 0.00 | 0.00 | 0.00 | 57 | |
| 20260504180018 | 26 | 193 | 6.4 | 12.9 | 0.00 | 0.00 | 0.00 | 57 | |
| 20260504175017 | 26 | 194 | 8.0 | 16.1 | 0.00 | 0.00 | 0.00 | 58 | |
| 20260504174017 | 25 | 214 | 3.2 | 6.4 | 0.00 | 0.00 | 0.00 | 59 | |
| 20260504173017 | 25 | 179 | 6.4 | 12.9 | 0.00 | 0.00 | 0.00 | 59 | |
| 20260504172016 | 24 | 200 | 4.8 | 6.4 | 0.00 | 0.00 | 0.00 | 59 | |
| 20260504171017 | 24 | 207 | 3.2 | 8.0 | 0.00 | 0.00 | 0.00 | 59 | |
| 20260504151017 | 22 | 185 | 6.4 | 11.3 | 0.00 | 0.00 | 0.00 | 59 | |
| 20260504141016 | 18 | 189 | 6.4 | 9.7 | 0.00 | 0.00 | 0.00 | 62 | |
| 20260504081017 | 12 | 178 | 3.2 | 4.8 | 0.00 | 0.00 | 0.00 | 60 |